Theta_e
355 354 354 355 354 353 353 354 354 354 353 350 347 347 343 340 341 339 337 340 342 344 347 349 349 349 348 348 349 348 345 342 338 336 340 344 342 338 339 340 340 341 342 344 344 345 347 349 350 351 352 352 349 348 349 349 348 348 346 345 347 347 346 343 337 337 340 338 338 339 340 340 339 337 335 335 335 337 338 339 339 338 337 338 337
355 355 354 355 355 355 353 353 353 353 352 349 345 343 341 340 339 338 336 336 339 342 343 343 344 344 345 345 347 347 341 337 337 336 338 342 340 336 339 340 340 341 343 345 346 347 348 349 350 350 351 353 349 346 346 347 348 348 346 347 347 345 346 343 336 338 340 338 338 339 339 339 338 337 336 335 335 336 338 339 338 337 336 336 336
356 356 355 355 355 355 354 352 352 352 350 347 344 342 341 340 339 338 337 336 338 340 337 337 337 338 340 341 341 346 344 337 337 339 337 339 339 336 339 339 340 342 344 346 347 348 347 348 350 351 351 351 349 346 347 347 349 348 346 347 347 346 346 341 335 338 339 337 339 339 338 338 337 337 337 336 335 336 337 338 337 337 336 334 335
357 357 356 355 355 356 355 352 350 351 351 348 345 343 342 340 339 339 337 336 336 337 335 335 336 335 337 337 336 342 346 341 336 337 336 338 339 338 339 339 340 341 343 346 346 346 346 347 350 353 351 350 349 348 347 349 350 349 347 347 347 347 346 343 339 338 337 338 340 338 337 337 337 337 337 336 336 337 337 337 337 336 336 335 334
357 357 356 356 356 356 356 353 349 349 350 348 345 343 342 340 339 338 337 337 335 335 335 335 337 337 336 337 336 338 342 340 336 336 336 337 339 339 339 339 340 340 342 344 344 345 345 346 348 351 352 350 349 349 349 350 351 350 349 347 346 346 345 344 341 339 338 337 339 339 337 337 337 336 336 336 336 337 337 337 336 336 336 336 335
358 358 357 357 356 356 356 353 350 348 347 344 344 341 340 340 339 339 338 338 336 336 336 336 336 337 336 336 337 335 336 338 337 336 337 336 338 340 340 339 340 339 340 341 343 343 343 344 345 349 351 350 348 349 349 351 351 350 348 347 347 346 344 344 342 341 338 335 336 339 339 339 338 336 336 338 337 337 337 336 337 336 336 336 335
358 358 357 357 357 357 357 352 345 345 343 343 343 341 338 338 338 338 338 337 337 336 336 336 336 336 335 335 335 334 335 337 337 337 338 338 337 339 340 338 339 339 339 341 342 343 343 344 344 346 350 350 349 348 349 351 351 351 348 347 347 346 345 345 344 342 339 337 337 339 339 339 339 338 337 338 338 338 337 336 336 336 336 335 335
357 358 358 358 357 356 354 348 341 343 344 343 342 340 338 338 337 336 337 336 337 336 335 335 336 335 335 334 334 334 335 336 338 337 338 338 337 338 339 338 339 339 339 339 341 343 342 343 344 344 346 348 348 347 349 351 351 350 348 347 347 345 345 344 344 343 342 341 341 339 339 339 339 339 339 338 338 338 338 337 336 336 335 335 335
357 357 358 357 357 356 351 346 341 345 348 342 338 339 337 337 337 336 336 336 336 335 335 334 334 334 334 334 334 334 334 335 338 338 338 338 337 337 339 338 339 339 339 338 341 343 343 343 344 344 345 347 347 349 350 351 351 350 348 348 347 345 345 344 342 340 341 342 341 340 341 340 339 339 339 338 338 337 337 337 336 336 335 335 335
356 356 357 357 357 356 353 351 348 347 347 342 339 339 338 336 336 336 335 335 335 335 334 334 333 334 334 334 333 334 334 335 337 338 338 338 338 338 338 338 339 339 339 338 340 342 342 342 344 344 345 346 348 350 351 351 351 349 349 349 347 345 344 345 340 334 337 342 343 341 341 341 340 340 339 338 338 338 337 336 336 336 336 336 336
355 355 357 356 356 357 356 356 354 350 349 346 341 340 339 336 335 335 335 334 335 334 334 334 334 334 335 335 334 334 334 335 336 337 337 338 338 338 339 339 339 339 339 338 338 340 341 342 343 344 346 346 348 350 350 351 351 350 349 348 348 346 346 347 341 330 332 340 342 342 341 340 340 339 339 338 338 338 337 336 335 335 336 336 336
356 355 356 356 356 357 357 358 357 354 353 349 344 340 339 338 336 336 335 335 335 334 334 334 334 335 335 336 336 336 336 335 336 336 337 337 337 338 339 339 339 339 339 338 338 340 340 340 342 344 345 345 346 349 350 351 351 351 350 348 349 348 346 347 340 327 329 337 341 342 342 340 340 339 339 339 338 339 338 337 336 336 336 336 336
354 355 355 356 357 357 356 357 358 356 352 349 345 341 338 337 336 336 336 336 336 335 335 334 335 335 335 337 337 337 338 338 337 336 337 336 336 337 338 338 338 338 338 337 338 339 338 338 339 342 344 344 344 348 350 350 350 351 350 349 351 349 346 346 339 325 327 336 341 343 343 341 341 339 339 339 338 339 339 338 338 337 337 337 337
354 355 355 356 357 356 355 355 357 354 349 346 345 342 339 336 336 336 336 337 337 337 337 337 337 336 336 337 337 337 338 338 339 338 337 337 336 336 336 337 337 337 337 336 336 336 336 336 338 339 341 340 341 344 347 349 349 350 350 350 352 350 346 345 337 325 325 333 339 343 343 342 342 340 339 338 338 339 338 338 339 338 336 336 336
353 355 355 355 356 355 354 354 354 351 346 347 346 345 343 338 335 336 336 337 337 338 338 338 339 338 338 338 337 337 338 338 338 338 338 337 336 336 336 336 337 337 336 336 335 336 335 335 336 337 338 338 338 340 344 347 349 350 350 349 351 351 347 343 333 323 323 327 334 338 340 341 342 341 340 338 338 340 339 339 339 339 337 336 337
352 354 355 355 356 356 354 352 351 348 345 346 346 345 343 340 336 336 335 336 336 337 337 338 338 339 339 338 337 338 337 338 338 337 338 337 337 337 336 336 336 336 336 336 336 336 335 335 335 337 337 337 338 338 340 345 347 350 349 348 350 351 349 343 331 323 322 323 327 330 332 339 343 341 340 339 339 339 340 340 339 339 338 337 337
352 354 355 355 355 356 354 352 350 348 345 345 344 343 342 341 338 335 335 336 337 336 337 338 338 339 340 340 339 339 340 341 341 338 338 339 338 338 337 336 335 336 336 336 336 336 335 335 335 336 338 340 342 340 339 342 346 347 348 347 350 352 350 344 333 326 323 322 326 327 326 333 339 339 338 338 337 334 336 339 339 339 339 337 337
351 353 354 355 355 355 355 354 350 346 343 343 342 341 342 341 339 337 335 335 336 336 336 337 337 339 340 341 342 342 343 344 343 342 342 342 341 340 339 338 337 336 336 335 335 335 335 335 335 336 340 342 343 342 341 343 345 346 346 347 351 352 350 346 336 328 324 323 327 329 326 327 331 333 332 334 332 325 328 336 338 339 338 338 338
352 353 354 355 354 354 355 354 352 348 343 343 342 342 342 341 341 339 335 333 334 334 335 336 336 338 339 340 341 342 343 345 345 343 344 344 343 343 341 341 339 338 337 336 336 335 335 335 335 336 339 341 341 340 341 343 344 344 344 347 350 349 348 348 341 330 325 322 323 326 324 323 325 326 328 330 327 321 324 331 335 338 337 337 338
351 351 353 354 354 354 353 352 354 353 349 346 345 344 343 342 341 339 338 336 335 334 334 335 335 336 337 338 339 340 342 344 344 343 344 345 344 345 344 343 343 341 340 338 338 337 336 335 335 336 338 339 340 340 341 343 345 344 342 345 349 347 343 344 343 334 326 323 321 321 320 319 320 321 323 325 324 319 321 325 330 333 334 335 337
349 350 352 353 353 353 353 352 353 354 353 352 349 346 345 345 343 341 340 340 338 335 335 334 334 335 336 337 338 339 340 342 341 341 343 344 345 345 345 345 345 344 343 341 341 339 338 336 336 336 337 339 340 340 340 343 343 344 342 341 347 347 340 337 340 335 326 323 322 321 320 318 319 319 319 321 322 319 320 322 324 328 332 334 335
348 349 350 352 353 353 353 353 353 353 353 354 353 350 349 348 345 344 343 341 339 338 336 335 334 334 335 336 337 337 339 340 340 341 343 343 343 344 344 345 346 346 345 345 344 342 340 339 337 337 337 338 339 340 340 342 342 342 343 340 342 344 337 331 335 332 324 324 322 321 321 318 318 320 319 320 322 321 320 321 322 325 332 336 334
348 347 348 350 352 353 353 352 352 353 352 354 353 353 351 349 347 347 346 343 341 341 339 336 335 334 334 334 335 336 337 338 339 339 340 341 342 342 342 343 345 345 345 345 345 345 343 341 339 338 338 338 339 340 340 342 342 341 342 342 340 340 335 330 331 328 325 324 322 321 321 320 319 320 319 320 322 322 321 321 323 323 328 337 336
348 346 347 347 349 352 352 351 352 353 352 353 353 354 352 351 349 347 346 344 344 345 344 341 338 337 336 334 335 335 336 336 336 337 338 338 339 340 340 341 342 344 345 345 345 346 345 344 341 340 340 338 338 338 339 342 344 342 341 342 341 340 336 332 330 329 327 326 324 323 322 321 320 319 319 321 320 322 322 320 322 322 322 332 337
348 346 345 345 347 348 349 349 350 351 351 352 351 352 353 352 351 349 347 346 346 347 348 344 340 340 340 339 337 337 337 337 337 337 338 338 339 339 340 340 341 342 344 345 345 346 346 346 344 342 341 340 339 339 338 340 343 343 341 342 342 340 338 334 332 331 330 329 329 328 325 322 321 320 320 321 320 321 321 320 322 323 321 323 331
344 346 347 346 346 347 346 345 345 348 351 352 351 352 351 352 352 351 350 351 350 349 349 347 343 342 341 341 340 339 339 340 340 339 340 339 339 340 341 340 340 341 343 344 345 346 346 346 346 345 344 343 342 340 339 338 341 342 341 341 343 342 339 337 334 333 332 332 332 332 331 328 323 321 320 321 321 320 321 322 321 322 322 321 325
339 343 345 344 343 344 343 343 341 346 350 351 350 350 351 351 352 351 351 353 352 351 350 349 347 345 343 342 340 340 340 341 341 341 342 342 341 342 343 342 341 341 342 344 344 345 346 347 347 346 346 346 345 343 342 339 340 342 340 340 342 343 341 339 336 334 333 333 333 333 334 331 327 323 321 320 321 321 320 321 321 321 321 321 322
342 339 337 339 340 339 341 340 340 346 350 351 350 350 350 350 350 351 351 352 353 353 351 350 348 347 345 342 341 341 340 341 341 341 342 342 342 342 343 344 343 342 342 343 343 344 345 346 347 347 346 347 347 346 345 342 341 342 341 338 340 343 343 341 338 335 334 333 333 333 333 333 328 324 323 322 320 321 320 321 321 321 321 321 323
344 339 333 334 336 336 338 337 338 343 347 349 350 349 350 349 349 350 351 351 352 353 351 350 348 347 345 344 343 343 342 342 342 342 342 342 342 342 344 345 345 344 342 344 344 344 345 345 346 348 347 348 348 347 347 345 343 342 339 336 338 341 343 343 340 337 335 333 334 334 333 333 330 326 324 324 322 320 320 321 321 321 321 321 322
341 340 333 330 330 330 331 333 335 338 342 346 348 348 349 348 348 350 350 350 351 352 351 349 348 347 345 345 345 345 344 343 342 342 341 341 343 343 343 344 345 345 344 344 345 345 346 347 347 348 348 348 348 348 347 345 342 340 337 335 336 338 341 344 342 339 337 335 335 335 334 333 332 330 326 326 326 322 320 321 321 321 321 321 321
339 339 331 327 328 328 328 329 330 333 337 342 344 345 346 348 350 350 350 349 351 351 351 348 347 347 347 347 345 344 344 343 342 342 342 342 343 343 344 345 345 345 345 345 345 346 346 347 347 348 349 348 349 348 348 346 343 340 337 335 336 337 339 342 343 341 338 336 336 335 336 335 335 333 331 330 330 328 323 322 321 320 319 320 321
336 337 330 326 328 328 327 327 328 332 333 335 339 343 345 347 349 350 350 350 350 351 350 347 348 348 347 345 344 344 344 343 343 343 343 343 343 343 344 344 345 346 346 346 346 346 346 347 348 348 348 349 349 349 348 346 344 342 338 335 336 336 338 339 342 342 339 337 337 337 337 337 336 335 334 333 333 332 329 327 326 322 319 318 320
335 339 333 327 328 329 328 327 327 329 332 333 336 340 342 342 347 351 352 351 351 351 349 348 348 349 347 345 344 344 344 343 344 344 344 344 344 344 344 344 346 346 348 348 348 348 348 348 349 350 349 348 350 350 349 347 344 343 340 336 336 336 337 338 340 341 341 339 338 337 337 338 338 337 336 335 336 335 334 334 334 332 327 322 319
335 337 334 328 327 328 328 327 326 328 333 336 335 336 339 342 345 348 349 349 351 351 350 348 347 347 346 345 345 344 344 344 345 345 346 345 345 344 345 345 347 347 348 350 351 353 352 349 350 355 354 349 349 350 350 349 346 344 340 336 335 336 336 337 339 340 342 341 339 338 337 338 337 338 338 338 337 337 338 338 339 340 337 332 326
337 337 334 330 327 327 326 327 328 328 332 335 334 337 343 346 347 347 346 346 348 350 350 348 345 344 344 344 344 344 344 345 346 346 346 345 345 345 345 346 347 348 348 349 351 353 354 351 354 358 357 354 352 351 350 350 348 344 341 338 336 337 336 337 338 339 341 342 341 340 339 338 337 338 338 339 340 339 339 340 341 342 342 341 338
343 339 335 330 327 327 327 327 329 329 330 334 337 342 346 348 349 349 347 345 346 348 348 347 345 342 342 342 343 343 343 344 345 345 345 345 345 345 345 346 347 348 348 349 349 350 352 355 357 358 356 356 357 354 350 351 347 342 340 338 337 338 337 337 338 339 340 341 343 342 342 341 339 338 337 339 340 341 341 342 343 343 344 343 342
339 335 333 332 330 330 329 330 332 331 331 335 342 346 346 348 350 351 350 347 344 344 345 345 343 341 341 341 342 342 343 343 344 344 344 344 345 344 345 346 347 348 349 349 350 350 351 355 357 356 355 357 358 354 352 351 347 342 340 339 338 338 338 337 337 337 338 341 343 343 343 343 342 340 339 339 340 342 343 343 344 345 345 344 342
336 334 336 337 335 334 334 334 334 333 334 337 343 346 347 347 349 351 352 349 344 341 342 342 341 341 341 343 343 342 343 343 343 344 343 344 345 345 346 346 347 348 349 350 353 354 352 353 355 356 357 357 356 355 355 353 348 344 341 339 339 338 338 338 338 337 337 340 343 343 343 344 344 342 341 341 341 343 344 344 346 347 347 345 343
340 340 340 340 339 337 338 339 339 337 338 339 342 345 347 348 347 350 353 350 343 339 341 341 342 344 344 343 344 344 343 344 343 344 344 344 345 346 346 347 347 348 350 353 356 358 357 356 356 358 360 358 357 358 357 355 352 348 343 340 339 339 338 338 337 337 338 340 342 343 343 342 345 345 343 343 344 344 345 346 347 348 347 346 344
345 345 343 341 342 343 345 350 350 343 341 342 341 342 345 347 347 349 351 350 343 341 343 343 343 343 344 343 344 343 343 344 344 344 345 345 346 347 348 348 349 351 352 354 355 358 359 358 357 359 360 359 358 359 358 357 355 352 348 345 342 339 338 338 338 338 339 339 342 345 345 342 343 346 345 344 344 345 346 347 348 348 347 346 345
346 347 346 346 348 350 350 352 351 344 342 343 340 341 344 347 348 347 349 351 350 347 344 343 343 343 343 342 343 342 343 343 344 345 346 346 347 349 349 350 352 354 356 356 356 357 360 360 359 360 359 359 359 359 359 358 357 355 352 349 347 342 337 337 339 339 340 338 340 345 345 343 341 344 345 346 345 346 347 348 348 348 347 346 345
346 350 351 351 354 354 352 350 347 345 345 343 340 341 345 347 348 347 345 349 353 351 345 342 343 342 343 343 343 343 345 345 346 346 347 347 349 350 351 351 353 356 358 356 355 358 360 359 359 359 359 359 360 359 359 359 358 356 354 352 351 347 341 339 340 341 340 339 338 342 344 343 341 341 344 345 345 346 348 348 348 348 347 345 344
347 350 352 353 354 354 353 350 347 347 347 346 344 343 343 347 348 348 347 351 355 353 348 345 343 343 344 345 345 345 345 345 346 347 348 348 349 350 351 352 353 357 359 358 357 359 360 359 359 360 360 360 359 360 359 359 358 357 356 355 353 352 348 344 342 341 340 339 337 339 343 343 340 339 343 344 345 347 349 349 349 349 347 345 344
346 348 350 351 352 353 353 351 348 347 347 348 350 347 345 350 353 350 350 355 357 354 349 346 345 345 346 346 348 348 347 347 348 348 349 349 349 349 352 353 353 356 360 362 361 360 361 360 360 359 360 360 360 360 360 359 357 357 357 356 356 355 354 350 347 345 343 341 338 339 343 343 340 337 341 344 346 348 349 349 349 348 346 345 342
345 345 346 348 350 352 354 353 350 347 345 348 352 350 347 349 350 347 346 349 350 349 348 347 346 346 347 348 349 349 348 348 349 349 350 350 350 351 352 352 354 358 360 362 362 361 362 362 360 359 360 361 360 360 361 360 358 357 356 355 355 355 354 354 352 351 349 348 345 342 344 344 341 338 341 344 347 348 349 349 349 347 346 344 339
346 346 346 347 348 350 352 353 353 351 348 347 349 349 348 346 346 346 346 346 346 347 347 346 347 348 347 349 351 352 352 351 350 352 353 351 351 353 354 353 357 360 360 361 361 362 361 361 361 360 360 361 361 360 360 360 359 358 357 355 354 354 354 354 354 353 352 352 351 349 347 346 341 338 341 345 348 349 350 350 349 347 344 341 337
345 345 346 347 348 348 349 351 352 352 353 351 349 349 348 347 348 348 347 347 347 347 347 347 349 351 352 353 354 357 359 359 358 357 358 358 357 357 358 359 360 361 360 360 361 361 360 361 361 361 361 361 361 361 361 361 360 359 358 356 355 355 354 355 354 354 354 353 353 352 350 348 344 341 345 347 349 350 350 349 347 346 343 340 337
344 345 346 346 347 347 348 349 350 351 352 352 353 352 351 352 352 352 353 355 354 354 355 353 352 354 356 356 357 359 360 361 362 362 362 362 361 361 361 362 362 362 362 362 361 361 361 361 360 361 361 361 361 361 361 360 360 359 359 358 357 356 356 355 355 354 355 354 353 353 352 350 348 347 348 349 350 351 349 348 347 344 341 338 337
344 345 345 346 346 346 347 348 349 349 349 349 348 349 350 351 352 352 354 357 358 360 362 362 360 359 359 359 359 359 358 359 361 362 361 362 362 362 363 363 363 363 362 362 360 361 361 361 361 361 361 361 362 362 361 360 360 359 359 359 358 357 356 355 354 354 355 354 353 353 352 351 350 349 350 351 351 349 347 346 346 342 338 336 336
344 344 345 346 346 346 346 348 348 348 348 347 346 346 347 348 349 350 352 354 355 357 359 360 360 360 360 359 360 361 360 359 359 359 360 360 360 361 361 361 362 362 362 362 362 361 359 359 359 360 361 361 362 361 361 361 360 359 358 357 357 357 356 355 355 355 353 353 353 353 352 351 350 350 350 351 350 348 346 345 343 340 337 337 337
343 344 346 346 345 345 346 347 348 348 347 347 346 346 346 346 348 349 350 351 352 353 353 352 351 353 353 353 356 359 360 360 360 360 360 360 360 359 359 358 359 359 359 360 361 359 359 358 358 358 359 360 360 360 361 360 360 359 358 358 357 357 357 356 356 355 352 351 352 352 351 351 350 350 351 351 349 347 346 344 342 339 337 337 336
Wind_Speed
26 28 30 30 29 30 30 29 29 30 30 33 34 32 35 37 33 33 33 31 28 24 21 20 21 20 19 20 19 18 18 19 21 23 21 19 20 20 18 17 17 16 15 14 13 12 11 10 9 8 7 8 7 6 5 5 3 2 2 2 3 3 2 3 3 4 4 3 3 3 3 4 4 4 4 4 4 3 4 4 5 5 5 5 4
24 27 30 30 29 30 31 30 30 31 32 35 38 38 38 38 37 36 36 34 32 28 27 26 26 25 23 23 21 21 22 22 22 22 22 20 21 21 18 18 18 16 15 15 13 13 12 11 10 9 8 8 8 6 5 5 3 2 2 1 1 1 1 1 2 5 4 4 6 5 5 5 4 4 4 4 4 4 4 4 5 5 5 5 5
26 28 30 31 30 30 31 32 32 32 34 36 38 39 39 39 39 38 37 37 34 31 32 32 31 29 27 25 23 21 21 23 22 22 23 22 22 21 19 19 18 17 16 15 14 14 12 11 10 9 9 9 9 8 5 4 4 2 1 1 1 1 1 1 3 6 4 4 7 6 6 6 5 3 3 4 4 5 4 5 5 6 5 6 6
28 29 31 31 31 31 32 33 34 33 33 35 37 39 40 40 41 40 39 38 36 34 34 34 32 31 29 27 26 22 20 23 24 24 23 23 22 20 20 20 19 17 16 15 15 14 13 12 11 10 10 10 10 9 6 5 4 2 2 1 0 0 1 1 2 5 5 5 5 5 5 5 5 5 5 4 4 5 4 5 5 5 5 6 7
27 28 30 32 33 33 32 33 35 35 35 36 37 39 41 41 41 41 40 39 38 37 36 35 34 32 31 29 28 26 24 24 25 25 24 23 22 21 20 20 19 18 17 16 15 14 14 13 13 11 11 11 10 9 6 5 4 3 2 2 1 1 2 1 1 3 5 5 5 5 4 3 4 7 7 5 4 4 5 5 5 5 4 5 6
26 28 29 31 32 32 32 34 35 36 37 38 38 38 40 41 41 41 41 40 39 39 37 37 36 34 33 32 30 30 29 28 27 26 25 24 23 22 21 20 20 19 18 16 15 15 14 14 14 13 12 12 10 8 6 5 4 3 4 2 2 3 2 3 3 3 4 5 6 6 3 3 4 6 6 6 5 4 4 5 4 5 4 4 4
26 27 28 29 31 32 33 37 39 38 38 38 38 38 39 40 41 41 41 41 40 40 39 38 37 36 34 33 31 31 31 30 29 26 25 24 23 22 22 21 20 19 18 17 16 15 15 15 15 14 13 13 11 8 7 5 5 4 4 3 3 3 3 4 4 4 4 4 5 5 3 2 4 5 5 5 6 5 5 5 4 5 4 3 3
27 27 29 30 32 35 37 40 42 40 38 38 39 40 40 40 41 41 41 41 41 40 39 38 37 36 34 33 33 32 31 30 29 27 26 25 24 23 23 21 19 19 18 17 16 15 16 15 15 15 14 14 12 9 7 6 6 5 5 5 4 4 4 4 6 6 5 4 6 6 4 3 4 4 4 4 4 5 5 6 5 5 4 4 4
28 29 30 32 34 37 40 42 42 39 37 40 42 41 41 41 41 41 41 41 41 40 39 38 36 35 34 34 34 33 32 31 30 28 27 26 25 23 23 22 20 19 19 18 17 16 17 16 15 15 15 14 12 9 8 7 7 7 6 6 5 5 5 4 6 8 7 5 6 7 6 5 4 4 5 5 4 3 4 5 6 6 5 5 5
29 30 31 33 35 36 38 38 38 39 38 40 42 41 41 42 42 42 41 41 41 41 39 38 36 35 35 35 35 34 33 32 31 30 29 27 26 24 24 24 22 21 20 20 19 17 17 17 16 16 15 14 13 11 9 8 8 8 7 7 7 6 6 5 5 7 8 7 6 7 7 6 5 5 6 6 5 4 4 4 6 7 7 7 7
29 30 31 33 34 33 32 33 35 38 38 38 40 41 42 43 43 43 42 42 42 41 40 38 37 36 36 35 35 35 34 34 33 32 31 29 28 26 25 25 24 23 22 22 21 19 19 18 17 17 16 15 14 12 11 9 8 8 8 8 8 7 6 6 6 6 9 10 8 7 7 6 6 5 5 6 6 5 5 5 4 5 5 6 6
28 29 30 31 32 32 31 32 34 36 37 38 41 42 43 44 44 43 43 43 42 42 41 40 38 37 37 36 36 35 35 35 34 33 32 30 29 28 27 27 26 25 24 23 22 21 21 20 19 18 17 16 15 13 11 10 9 9 9 9 8 7 6 6 6 7 8 10 9 8 7 7 6 5 4 5 6 5 5 5 4 3 3 4 4
28 30 31 31 33 34 34 34 35 37 40 42 43 43 44 45 45 45 44 43 43 42 41 40 40 39 38 37 37 37 36 36 35 33 33 32 30 29 29 28 28 27 27 26 24 22 22 22 21 20 19 18 16 14 13 12 11 10 10 9 7 7 7 7 7 7 8 10 9 8 8 7 7 6 5 5 5 5 5 5 4 2 3 3 3
28 30 31 32 34 36 38 38 38 40 43 45 45 45 46 47 47 47 46 44 44 43 42 42 41 40 39 39 38 38 38 37 36 35 34 33 31 30 29 29 28 27 27 26 25 24 24 23 23 22 21 20 19 17 15 13 13 12 12 11 9 8 8 8 9 8 10 11 10 10 9 8 7 7 6 6 5 5 5 5 4 3 3 3 2
29 30 32 33 35 37 39 40 41 44 45 45 46 47 47 48 48 48 47 46 45 44 44 43 42 41 40 40 40 40 39 39 38 36 35 34 33 32 31 29 29 28 26 26 25 25 24 23 23 23 22 22 20 19 17 15 14 14 13 13 11 9 9 10 10 10 11 12 12 12 10 9 8 8 7 7 6 6 5 5 5 4 4 3 3
29 30 32 33 35 36 39 42 43 45 46 45 46 48 49 49 48 48 48 48 47 46 46 45 43 43 42 41 41 41 40 39 39 38 37 36 34 33 32 30 29 28 27 27 27 26 25 24 23 23 23 22 21 20 18 17 16 15 15 15 13 10 10 11 12 12 13 13 13 13 12 10 9 9 9 8 8 7 7 6 7 6 5 4 4
29 31 32 33 34 35 38 42 44 46 47 47 47 47 47 48 48 48 48 48 48 47 47 46 45 44 43 42 41 41 41 40 40 39 37 36 35 34 33 31 30 30 29 29 28 27 26 25 24 23 22 21 20 20 20 18 18 17 17 17 14 11 11 12 13 13 14 14 13 14 14 13 12 12 11 10 10 10 9 8 8 8 7 6 5
28 30 31 31 33 36 37 40 44 48 48 48 48 47 46 46 46 47 47 48 49 48 47 46 46 45 44 44 43 42 41 41 41 39 36 36 35 34 33 32 31 31 31 30 30 29 28 27 26 25 23 21 21 21 21 20 20 19 20 18 14 12 12 12 14 15 15 15 15 15 15 15 14 14 12 12 12 11 10 10 10 10 10 8 7
25 27 28 29 33 36 38 38 41 46 49 49 48 47 46 45 45 45 46 48 48 48 48 48 47 47 47 46 45 44 43 42 41 39 37 37 36 34 33 32 32 31 31 31 31 30 30 29 28 28 26 24 23 23 22 22 21 21 22 19 16 16 15 13 14 17 17 17 17 17 17 16 15 14 13 13 12 11 11 11 11 11 11 11 10
24 26 28 31 34 36 38 39 38 40 45 47 47 48 47 46 45 45 45 46 46 46 47 49 49 48 48 48 47 46 45 42 41 41 40 39 38 36 34 32 32 32 31 31 31 31 31 30 30 29 28 27 26 25 24 24 23 23 23 21 17 18 19 17 15 17 19 20 19 19 19 18 17 15 14 14 13 11 11 12 12 13 13 12 11
27 27 29 31 33 34 35 36 35 35 37 40 43 47 48 46 46 46 46 46 46 46 47 49 49 49 49 49 48 48 47 45 44 42 41 40 39 38 36 34 33 32 32 32 31 31 32 31 31 30 30 29 28 27 26 25 25 24 24 24 20 19 21 21 18 19 22 22 21 20 20 19 18 17 16 15 14 13 12 12 13 13 13 13 13
26 26 27 28 29 30 30 31 32 32 34 36 39 42 44 46 47 46 46 47 46 46 48 49 49 49 49 50 49 48 47 47 45 43 42 42 40 39 37 36 35 34 33 33 32 32 33 33 32 32 32 31 30 30 28 26 27 26 25 26 24 23 24 25 23 23 24 24 23 22 21 21 20 20 18 17 16 15 13 13 13 13 13 14 13
18 20 20 21 22 24 26 29 31 33 35 36 36 38 41 46 47 46 47 48 47 47 48 49 49 49 49 49 48 48 47 46 46 45 44 43 42 40 38 37 37 35 34 34 33 33 34 34 35 34 33 33 32 31 30 28 27 28 27 26 26 26 27 28 27 26 26 25 25 24 23 23 23 22 21 20 18 17 16 14 14 14 13 14 14
13 15 17 18 18 20 24 29 32 35 35 35 36 37 39 43 46 48 49 49 48 47 48 49 49 48 48 49 48 48 48 47 47 46 46 44 43 42 40 39 38 37 37 36 35 34 34 35 36 36 35 35 34 33 32 30 28 29 28 27 27 28 28 29 29 28 28 27 27 26 25 25 25 24 24 23 21 20 18 16 15 15 15 14 14
11 14 16 18 19 22 26 30 33 35 36 36 37 37 37 39 43 47 49 49 48 47 47 49 49 48 48 49 48 48 49 48 48 48 47 46 45 45 44 42 40 39 40 39 37 36 36 35 36 37 37 37 36 35 35 33 31 29 29 29 28 29 29 30 30 30 30 29 28 27 27 27 27 26 26 25 24 22 21 19 17 17 16 15 15
10 12 15 18 21 23 26 29 32 34 35 36 38 38 37 36 38 41 42 43 45 46 47 48 49 49 49 49 48 48 48 48 48 48 48 47 46 46 46 45 43 41 41 41 40 39 38 37 36 37 37 37 37 37 37 37 34 32 31 30 30 30 30 31 31 31 31 31 30 29 28 29 29 28 27 27 26 25 23 21 19 18 17 16 16
8 11 14 16 19 22 26 28 30 32 33 34 36 37 36 36 36 37 37 36 39 44 46 48 49 50 50 50 49 48 48 47 46 47 47 46 45 45 46 45 43 42 42 43 43 42 39 38 37 37 37 37 37 38 38 39 38 34 33 33 32 32 32 32 33 33 32 32 31 30 30 30 31 30 28 28 28 27 25 23 21 20 18 17 17
7 8 11 14 17 20 23 26 27 28 30 31 33 35 36 37 38 37 35 34 36 40 44 47 49 50 51 52 51 49 48 47 47 47 46 45 45 44 44 45 43 42 41 42 43 42 40 39 38 38 38 38 38 38 38 40 40 36 35 36 35 34 34 34 34 34 34 33 32 31 31 32 32 31 29 29 28 28 27 25 24 22 20 19 18
6 5 6 9 12 14 17 22 24 26 29 31 33 34 36 38 40 38 37 35 35 38 43 47 48 50 52 51 50 50 49 48 48 48 47 46 46 45 44 45 45 43 41 41 41 41 40 40 39 39 39 39 40 40 40 41 41 38 37 39 38 37 36 35 35 35 35 35 34 33 33 33 33 32 30 29 28 29 28 26 25 24 23 21 20
5 4 7 9 9 9 11 15 20 24 29 31 33 34 36 37 38 38 38 37 36 38 43 47 49 50 51 50 50 49 49 49 49 49 49 48 47 46 46 46 46 45 43 42 41 41 41 40 40 39 40 40 41 42 42 42 42 41 41 41 40 40 38 37 36 36 36 37 36 35 35 34 34 33 30 29 28 28 28 26 25 25 24 23 22
8 7 12 15 13 12 11 13 16 21 26 30 32 34 35 35 35 36 38 38 36 38 43 47 48 49 49 49 49 49 48 48 47 48 49 48 48 48 47 47 47 47 46 44 43 43 42 41 41 39 40 41 43 43 43 43 43 43 43 42 41 41 40 39 38 38 38 38 37 37 36 35 35 34 32 30 29 29 28 26 25 25 25 25 24
14 14 19 21 19 18 17 16 17 17 20 26 31 33 33 34 34 35 35 35 36 38 42 46 47 47 48 48 49 48 48 47 47 47 48 47 47 48 48 48 48 48 47 46 45 45 43 42 42 41 41 41 43 45 44 44 44 44 43 43 42 42 42 41 41 40 39 39 38 37 37 37 37 35 33 32 31 31 30 28 26 25 26 26 26
17 17 22 25 23 21 20 19 18 17 18 20 25 30 33 34 34 32 30 31 35 38 41 44 45 45 47 48 47 47 46 46 46 46 46 46 47 47 48 48 48 48 46 45 45 45 44 44 44 42 43 43 43 44 45 44 45 45 44 44 44 44 45 44 42 41 40 40 39 38 38 38 38 35 34 34 33 32 31 29 26 25 26 26 27
19 19 22 25 25 24 23 20 18 17 17 17 20 25 29 31 32 32 32 34 36 37 39 42 44 44 46 46 46 46 45 45 46 46 45 46 46 46 47 47 48 48 46 43 41 38 39 44 41 36 39 44 45 45 46 45 46 46 46 45 44 45 46 46 44 43 42 41 40 39 39 39 38 37 35 35 35 34 32 30 28 27 27 27 28
20 21 23 26 28 28 25 22 19 17 16 17 19 22 25 28 29 32 35 37 38 38 39 42 44 44 45 45 44 45 45 45 45 45 45 46 46 45 46 47 47 48 48 45 42 38 38 40 35 28 32 39 42 45 47 46 46 48 47 45 44 45 46 47 47 45 43 42 41 40 40 38 38 37 36 35 35 34 33 32 30 28 27 28 28
17 20 23 27 28 27 25 23 21 19 17 18 19 20 22 24 26 30 34 37 39 40 41 43 44 44 43 43 43 43 44 44 44 44 45 45 45 45 45 47 47 48 48 47 46 45 41 34 29 29 33 35 37 43 47 47 47 49 48 46 45 45 46 48 49 47 45 44 43 42 41 39 38 38 37 36 35 34 33 32 30 28 27 27 28
20 22 24 25 25 24 24 23 20 18 18 18 18 19 21 23 25 28 32 36 39 41 42 43 43 42 41 41 41 42 43 42 42 43 44 43 43 44 45 46 47 47 48 48 47 47 44 35 31 34 36 34 35 41 45 47 48 48 47 47 46 46 47 48 49 49 47 45 44 44 43 41 40 40 39 37 35 33 33 32 29 27 27 25 25
22 22 21 21 22 22 22 21 19 17 17 18 19 20 22 25 26 27 29 34 37 40 42 43 42 41 40 40 41 42 42 41 41 42 42 42 42 43 44 45 46 46 47 46 44 43 43 41 37 34 34 34 36 38 40 45 48 47 47 47 46 46 48 48 49 50 49 47 44 44 45 43 41 42 41 37 35 34 33 32 29 24 23 21 20
17 17 17 18 19 19 17 16 16 16 17 18 20 20 22 25 27 27 28 32 36 37 39 41 41 40 40 40 41 41 40 40 40 41 41 42 42 43 43 43 44 45 45 44 40 37 39 40 36 32 32 34 35 35 37 42 46 47 47 47 46 47 48 49 50 51 50 48 45 43 45 45 42 42 42 39 36 35 33 32 27 22 22 22 19
11 13 16 16 14 13 10 9 12 15 16 17 19 19 21 23 25 26 28 31 34 34 35 37 39 40 41 41 40 38 37 38 40 41 41 41 41 42 43 43 43 44 43 42 40 37 36 36 34 32 32 33 33 33 35 39 43 45 47 47 46 48 50 51 51 50 50 49 44 39 41 45 44 43 43 40 37 35 33 31 27 22 23 22 20
9 11 13 11 8 8 8 8 12 15 15 16 17 18 19 21 22 25 27 27 27 29 31 33 35 37 39 38 37 35 35 37 39 39 40 40 41 42 42 42 42 40 39 40 39 35 33 33 32 32 33 33 32 33 34 37 41 44 46 47 47 48 51 52 52 50 49 50 47 40 38 42 44 44 43 41 39 36 32 31 29 25 22 20 20
7 7 7 6 4 6 7 9 11 10 10 14 16 17 18 19 20 22 23 22 22 24 28 30 31 33 35 35 35 34 35 37 38 38 39 40 40 41 41 41 40 37 38 40 38 33 32 32 32 34 35 34 34 35 35 38 41 43 45 48 48 49 50 50 51 51 49 50 51 45 39 40 43 44 44 42 40 36 32 31 31 28 25 24 24
3 4 4 3 2 4 5 7 9 9 8 10 13 15 16 16 16 18 18 18 19 22 25 26 27 29 32 33 33 33 34 35 35 37 38 38 38 39 40 41 39 34 32 34 34 32 33 33 32 33 36 35 35 36 37 40 43 43 44 47 47 48 48 48 49 51 50 49 51 47 41 40 42 43 43 42 39 35 32 31 31 29 28 27 27
3 4 4 2 1 2 2 4 8 11 10 9 10 13 14 14 16 19 18 17 19 21 23 24 24 25 28 30 31 31 32 32 32 34 36 36 36 37 38 40 39 33 27 27 29 29 30 34 34 34 34 34 35 35 37 40 43 44 44 44 45 45 47 48 49 49 48 48 49 47 43 41 40 41 41 41 38 35 33 31 30 30 29 28 27
4 4 3 0 2 4 4 1 4 9 11 11 11 12 15 17 18 20 19 19 20 21 21 21 21 21 23 25 27 29 29 28 29 31 34 35 35 36 38 40 38 32 26 26 27 28 29 33 37 35 32 32 33 34 35 38 43 45 44 44 43 44 46 49 50 49 45 43 44 44 43 40 38 38 39 39 37 35 33 32 31 30 29 28 28
4 3 2 2 3 3 5 4 2 5 9 11 11 12 15 16 17 16 17 18 18 18 18 18 18 18 19 20 22 24 24 25 26 28 30 32 33 34 36 37 34 30 28 27 28 30 31 32 35 34 32 31 33 35 36 39 42 45 46 46 45 44 45 48 50 49 44 40 39 39 40 38 37 38 39 39 37 36 35 34 33 31 28 28 30
2 3 2 3 3 3 4 5 5 3 5 8 10 11 13 14 14 15 16 16 16 16 17 17 17 17 17 18 19 19 19 19 22 23 24 27 29 30 33 33 31 31 31 29 27 30 31 32 33 33 32 32 33 35 37 39 42 46 49 51 50 47 45 46 50 51 47 43 40 39 38 37 35 36 36 36 36 36 36 36 35 33 32 33 34
3 3 3 3 4 4 4 4 4 4 4 5 6 7 8 9 10 10 10 9 10 10 11 12 14 15 15 16 16 17 17 16 16 18 20 22 23 24 26 27 27 29 31 30 29 30 31 32 34 34 33 33 34 35 36 38 42 48 51 52 53 51 48 48 51 53 52 49 46 43 41 39 37 35 35 37 37 37 38 38 37 36 36 37 35
5 5 4 4 4 4 4 4 4 4 4 4 5 5 4 4 4 5 5 4 5 6 6 7 8 10 11 12 12 13 15 15 15 16 18 20 22 23 24 25 25 25 27 29 30 31 31 31 32 32 33 34 36 38 38 39 42 47 50 50 52 52 51 52 53 54 54 53 51 49 46 44 43 42 41 41 40 39 39 39 38 38 39 38 34
7 7 7 6 5 5 5 4 4 4 5 5 5 5 4 4 3 3 3 3 3 4 5 5 6 8 8 8 8 8 9 11 13 14 15 18 20 22 24 25 25 25 26 28 30 31 31 32 32 33 35 35 36 38 40 40 42 47 50 51 51 52 53 54 54 55 56 56 55 55 52 50 49 48 47 44 43 43 44 43 41 42 41 38 36
8 9 9 8 8 8 7 6 5 5 5 6 6 6 5 5 4 3 4 4 3 4 4 4 5 7 6 6 6 6 6 6 8 10 12 14 16 18 20 23 24 26 28 30 33 34 34 34 35 37 39 40 41 42 43 44 47 50 52 52 52 51 51 52 54 56 58 58 58 59 58 55 53 52 51 48 46 47 47 45 44 45 43 40 39
Wind_Direction
190 191 192 193 194 196 197 195 196 199 201 207 210 209 211 211 210 210 209 207 205 203 200 199 200 202 204 205 207 211 213 214 217 217 218 220 223 224 220 220 223 222 222 223 222 223 223 224 231 236 242 252 259 258 251 250 255 287 321 333 2 3 4 14 25 60 69 63 88 137 153 141 140 141 146 150 153 156 140 117 101 89 79 74 73
186 188 191 193 193 195 197 198 199 201 203 210 214 215 215 214 214 214 213 212 211 209 209 210 209 208 208 207 208 214 220 222 221 222 221 222 225 224 221 221 223 223 223 223 224 225 225 228 234 237 240 247 256 256 248 251 255 271 309 336 4 354 7 40 88 87 77 82 104 120 127 128 134 141 149 156 161 162 149 127 110 97 86 78 76
186 188 189 192 192 193 197 202 203 205 209 214 217 219 218 215 215 216 215 214 213 214 216 218 218 218 216 215 215 215 224 228 225 226 225 224 227 225 222 223 223 222 223 223 225 228 230 232 235 240 243 244 251 255 250 246 250 264 290 316 348 343 338 353 106 105 101 113 123 133 136 137 136 149 162 153 160 164 147 135 120 104 96 92 91
189 188 188 190 191 193 197 203 206 206 209 215 218 220 219 217 215 215 216 215 216 217 219 220 222 223 222 223 223 219 223 230 228 228 228 226 229 228 224 224 224 223 223 225 227 232 234 235 235 238 243 245 248 252 251 248 247 255 261 265 310 70 74 16 110 119 130 140 140 133 137 155 150 153 165 154 158 165 152 143 131 118 106 102 105
191 190 189 189 191 193 197 203 208 208 210 214 218 219 218 217 216 215 216 216 217 218 219 220 222 224 224 225 227 225 224 229 230 229 229 226 227 229 227 224 224 224 224 227 230 234 237 237 236 237 241 245 246 249 249 245 241 239 250 256 252 206 140 173 206 146 155 164 159 143 139 159 147 146 154 155 163 166 159 158 141 132 127 118 122
195 193 191 191 192 192 195 203 208 210 213 217 218 219 218 217 217 217 217 218 218 219 219 220 221 222 223 222 224 224 224 227 228 227 227 227 225 227 229 226 224 225 226 227 231 235 238 239 239 237 239 243 243 244 243 241 236 233 246 246 238 245 195 183 198 181 187 179 167 172 159 105 123 149 157 156 173 180 167 176 165 149 150 139 134
197 196 195 193 192 192 197 206 211 212 215 218 219 221 220 218 217 217 217 219 220 221 221 220 221 222 222 222 222 223 223 225 227 226 226 228 226 226 230 229 226 227 229 229 231 235 238 240 241 239 238 242 242 238 236 235 232 228 239 238 231 253 235 188 189 192 201 188 176 188 182 118 134 162 165 159 174 186 182 191 190 176 177 166 154
197 196 196 195 195 197 201 209 213 213 213 216 219 221 221 219 218 217 217 219 220 222 222 221 221 222 222 222 223 224 225 226 229 228 226 228 229 227 230 231 229 229 232 233 233 235 238 239 241 242 241 242 241 238 235 231 230 232 238 237 229 243 244 196 186 192 192 190 188 186 190 193 180 180 188 182 180 185 190 200 201 194 195 194 194
198 198 197 198 198 201 207 212 213 210 209 215 219 220 221 220 219 219 218 219 221 222 223 222 221 221 222 222 224 225 226 228 231 232 230 230 230 229 229 232 231 230 232 235 235 235 238 239 240 242 243 244 243 239 236 230 231 236 236 240 236 230 234 210 193 196 189 190 196 185 186 198 197 205 213 212 209 197 190 194 197 202 208 212 215
201 201 199 200 202 204 208 209 210 209 209 215 219 219 221 221 220 220 219 220 221 222 223 223 222 222 222 223 224 226 227 228 230 234 234 232 232 230 228 231 231 231 232 235 237 235 237 239 238 240 241 242 241 235 233 231 233 237 233 238 238 228 227 215 207 208 191 186 194 187 187 192 195 207 214 214 217 218 209 199 196 206 216 215 215
202 202 201 202 204 204 204 203 206 210 209 212 217 219 221 222 222 221 221 221 222 223 223 224 223 222 223 224 225 227 228 229 230 233 235 233 232 231 230 230 231 231 232 234 236 235 236 237 237 239 240 239 237 234 233 232 232 234 231 234 235 230 227 214 215 225 206 193 194 192 191 192 195 203 211 214 215 214 218 219 206 204 217 213 210
202 202 201 201 201 200 200 200 202 206 207 210 215 218 221 223 223 223 223 223 223 224 224 225 224 223 224 225 226 228 229 231 231 232 234 234 233 232 231 232 232 232 232 233 234 233 234 236 234 235 237 237 236 233 231 229 229 231 231 233 230 224 224 214 214 231 222 208 202 201 200 197 201 205 206 211 217 216 216 228 224 201 223 223 214
201 201 201 199 198 198 199 199 199 204 210 212 214 217 220 223 224 224 223 223 223 224 224 225 225 224 224 225 227 229 230 231 232 232 233 235 234 233 232 232 232 232 233 234 233 232 234 235 234 233 235 237 236 234 230 228 228 231 234 236 227 220 221 215 218 230 227 213 201 202 205 203 206 209 206 204 210 216 214 223 224 205 226 226 212
202 201 201 199 199 199 202 202 201 207 214 215 216 216 219 223 223 223 223 223 223 223 224 225 225 225 225 226 227 229 230 231 232 232 233 234 234 234 234 234 234 234 234 235 234 234 236 236 235 235 236 238 237 235 233 231 230 229 233 236 229 224 221 215 218 227 227 217 203 201 202 202 206 205 204 204 201 210 213 215 217 218 235 223 208
202 202 202 201 200 201 205 206 207 213 217 216 216 216 218 222 224 224 223 223 223 223 224 225 226 226 227 227 227 229 231 232 233 233 233 233 233 234 234 234 236 236 235 235 236 236 236 236 236 236 237 239 240 238 235 232 232 229 230 234 233 226 221 219 220 222 226 223 215 212 205 202 208 204 202 206 204 207 210 209 207 205 214 210 197
202 203 204 203 201 201 205 208 211 217 219 217 217 217 218 221 224 225 224 224 223 223 224 225 225 226 227 227 227 228 230 232 233 233 232 233 233 234 235 234 235 237 236 235 236 237 237 236 236 236 237 239 241 242 239 234 232 230 229 233 232 225 220 221 221 222 226 224 221 224 216 204 206 206 203 207 207 207 205 206 204 200 209 211 195
202 204 205 203 201 201 206 210 213 217 220 219 219 220 220 220 223 224 225 225 225 224 224 224 224 225 225 226 226 226 227 229 232 232 231 232 234 234 234 234 234 236 236 236 236 237 236 236 236 235 235 235 237 241 241 236 232 231 233 234 229 220 220 222 222 223 226 224 222 227 225 213 209 210 206 206 210 210 206 205 205 205 211 213 205
204 205 205 202 201 203 205 209 214 220 222 221 222 222 221 221 222 224 225 225 225 225 225 224 224 224 224 224 225 226 228 230 232 232 231 232 233 233 233 233 233 234 235 235 235 235 235 234 235 235 233 231 233 238 240 237 233 231 234 235 227 218 219 222 223 223 224 224 220 223 227 222 218 219 213 211 215 212 207 207 207 207 210 211 213
206 206 204 203 204 206 208 209 212 219 223 223 223 223 222 223 223 224 226 226 225 225 226 225 225 224 224 224 225 227 228 230 232 232 232 233 233 233 232 232 232 233 232 233 233 233 233 232 232 234 233 232 232 236 238 236 234 232 233 233 227 223 222 221 223 225 225 225 221 222 227 224 222 222 217 215 220 215 208 207 207 210 214 213 215
207 206 205 206 207 208 211 213 210 211 219 222 222 224 224 224 224 225 226 227 227 226 226 227 226 225 226 226 226 227 228 230 231 231 232 233 233 234 233 233 233 233 233 232 231 231 231 230 230 231 232 232 232 234 236 235 234 234 234 232 226 223 224 223 223 226 227 226 223 222 226 226 224 224 220 220 225 223 215 211 210 213 218 219 218
207 206 207 209 210 208 209 214 211 207 211 215 218 223 224 224 225 226 226 227 227 227 227 228 227 227 227 228 228 228 229 231 232 232 233 234 235 235 235 234 235 234 233 233 231 230 230 230 229 230 231 232 232 233 234 234 234 234 234 232 227 222 224 226 225 228 230 229 225 223 225 226 225 225 225 224 227 230 226 221 219 218 218 221 222
208 209 210 209 209 208 206 209 209 206 206 208 212 217 220 221 225 226 226 226 227 227 227 228 228 228 229 229 230 230 230 232 233 234 234 236 237 236 236 236 236 235 234 233 232 231 230 229 229 229 230 231 232 233 233 234 235 236 235 233 231 228 227 227 226 228 231 231 228 225 224 226 225 226 228 227 228 232 232 229 228 225 218 219 226
212 213 214 212 209 206 205 206 207 207 207 207 207 208 214 220 222 224 226 227 227 228 229 229 230 230 230 230 231 232 233 233 234 235 235 236 237 237 236 236 236 236 236 235 233 231 230 229 229 230 230 230 231 233 233 233 235 236 236 234 234 233 232 229 227 229 230 231 231 228 226 227 226 227 229 229 229 232 234 233 232 232 224 219 228
217 215 211 209 207 204 206 208 208 208 208 208 207 206 210 216 219 222 226 228 227 226 227 231 232 231 231 231 231 232 233 234 234 235 235 236 237 238 237 236 235 236 237 236 234 233 231 230 229 231 231 231 232 232 234 234 234 235 235 235 235 235 234 232 230 230 231 232 233 231 229 229 228 228 229 230 231 232 235 235 234 237 234 223 226
217 212 205 204 202 205 211 213 212 211 209 209 211 210 208 210 215 219 222 225 225 223 224 230 234 233 233 233 232 232 233 234 234 235 235 236 236 237 238 237 235 235 236 237 236 234 233 231 230 231 231 232 232 233 234 236 235 234 234 234 235 235 234 233 232 231 233 234 235 235 234 233 232 230 229 230 232 233 235 236 235 238 240 233 229
224 210 204 203 203 208 216 219 219 217 211 210 213 214 212 210 211 214 215 216 219 220 222 226 232 234 234 235 235 234 234 234 235 235 235 236 236 236 238 239 237 235 236 237 237 235 233 232 231 231 232 233 233 234 235 236 237 236 234 234 235 236 235 234 233 232 233 234 236 237 237 237 236 234 232 232 233 233 234 236 236 237 240 240 236
231 213 208 210 211 215 221 226 226 221 215 213 215 216 215 212 211 212 211 208 211 217 220 223 229 232 234 236 237 237 237 237 237 237 236 236 236 235 236 238 239 238 237 237 238 237 235 233 232 232 233 233 235 235 235 237 238 236 235 234 234 236 236 235 234 233 233 235 235 236 238 239 238 236 235 234 234 235 235 235 236 237 238 240 238
221 223 223 225 227 227 228 231 231 224 216 215 217 217 217 217 216 213 209 207 207 211 218 223 226 230 234 237 238 238 238 238 238 239 238 238 237 236 235 236 238 239 238 238 238 238 237 235 233 232 233 233 235 235 235 237 238 235 234 235 235 235 236 236 235 234 233 235 235 235 236 238 239 237 236 235 236 237 237 235 235 235 236 237 235
210 237 253 250 246 244 241 240 237 228 220 218 218 219 218 219 220 216 211 209 206 209 218 223 226 231 236 238 238 238 239 239 239 239 240 239 239 238 237 235 236 239 239 239 239 239 239 237 235 233 233 234 235 235 235 236 236 235 235 236 236 235 236 237 237 235 234 235 235 235 236 237 239 238 236 236 237 239 240 238 237 235 234 235 233
238 271 308 302 281 270 263 254 245 234 226 221 219 220 220 219 219 218 214 210 206 211 220 225 228 232 235 236 237 239 240 240 240 240 240 240 240 240 239 237 237 239 240 239 240 240 239 238 237 234 233 233 235 235 235 236 236 237 238 238 237 236 235 236 238 236 235 234 234 235 237 238 240 240 238 237 236 240 241 239 239 238 235 235 234
274 300 313 308 292 284 285 277 264 248 234 227 225 225 224 219 216 217 217 213 207 210 220 227 229 232 233 235 238 240 241 241 241 240 240 240 240 240 240 240 239 239 241 241 241 240 240 240 239 237 234 233 235 235 235 235 237 238 238 238 238 237 235 235 237 238 236 235 235 235 236 239 240 240 239 238 236 238 240 238 237 238 236 236 235
287 298 301 299 289 282 283 283 278 263 246 238 232 228 225 220 216 215 214 212 208 212 222 228 230 231 232 235 238 240 241 241 242 241 241 241 241 240 241 241 241 240 241 242 242 242 242 241 241 240 237 234 234 236 235 235 236 237 238 238 238 238 237 236 237 238 238 237 236 235 236 238 240 239 238 238 237 237 239 238 237 237 237 237 236
292 295 293 289 282 279 281 281 276 267 259 251 239 232 231 228 220 211 208 208 208 212 222 228 229 230 233 237 238 239 241 241 242 241 241 241 241 242 242 242 242 242 241 242 243 243 243 243 242 241 241 238 236 236 236 235 236 237 237 236 237 239 239 238 237 238 239 239 238 237 237 237 239 238 237 238 238 237 238 238 237 237 237 237 237
287 287 287 283 279 278 278 276 272 266 259 253 246 240 237 231 222 213 211 211 210 211 219 227 230 231 234 237 238 240 241 241 241 241 240 241 243 243 243 243 243 243 242 241 241 239 241 243 241 237 239 240 238 237 237 236 236 237 236 235 236 238 239 239 238 238 239 240 240 239 238 238 239 238 237 237 239 238 238 239 237 236 237 238 240
280 280 279 277 277 277 276 274 271 267 259 250 246 240 232 226 221 217 217 217 214 213 217 225 231 233 235 237 239 241 241 240 240 241 241 242 244 245 245 244 243 243 244 243 241 239 240 242 237 230 234 238 238 237 237 237 236 236 236 235 234 236 238 239 239 239 239 240 241 240 240 239 239 239 237 237 239 240 239 239 239 239 240 241 243
272 271 271 271 273 273 274 273 272 270 263 252 243 232 222 218 216 214 216 219 219 217 218 224 230 234 235 236 238 240 240 240 240 241 241 242 244 245 245 244 243 243 244 245 244 243 242 237 230 230 234 235 235 237 237 237 237 237 237 235 233 233 236 238 239 239 239 240 240 240 240 239 239 239 238 237 238 241 241 241 241 241 241 242 245
266 267 269 271 273 272 273 276 277 273 264 249 236 226 218 212 209 210 214 219 222 223 224 227 231 234 236 237 238 239 240 239 239 240 242 243 244 244 244 244 244 243 242 243 244 245 242 236 232 235 235 233 234 237 237 236 238 239 238 236 233 232 234 236 238 239 239 239 239 238 238 238 238 238 237 236 237 238 240 241 241 240 239 237 239
265 268 270 272 273 274 276 278 275 268 257 241 227 220 215 211 207 205 209 218 225 228 229 230 233 235 236 237 238 239 239 239 240 241 243 243 244 244 244 244 244 243 242 241 241 242 243 240 236 233 232 233 235 236 237 237 238 239 239 238 234 232 233 235 236 238 239 238 238 237 236 236 236 237 236 235 235 235 237 239 238 234 231 228 225
264 267 267 267 270 272 276 277 269 256 246 236 227 218 213 212 209 204 206 218 228 230 231 232 233 234 236 237 238 239 240 241 242 242 243 243 243 244 244 245 245 245 243 240 236 234 237 239 237 232 231 234 235 234 236 238 238 238 239 238 235 232 232 234 235 236 237 237 237 238 236 234 234 236 237 234 233 233 233 235 233 226 223 224 218
261 264 262 262 267 270 271 271 259 246 235 232 229 218 212 212 210 207 209 220 230 232 231 232 233 233 235 237 239 240 242 243 243 242 243 244 244 244 244 245 245 244 242 239 236 233 233 235 235 233 232 233 233 230 232 237 239 238 237 238 236 233 233 234 234 233 234 236 236 236 237 235 233 234 236 234 230 230 230 232 230 222 221 222 218
254 257 255 252 259 265 258 249 251 246 235 228 223 214 209 211 212 213 215 219 227 232 234 234 234 234 236 238 241 243 244 244 244 244 244 245 244 244 244 245 244 241 239 238 237 234 232 232 232 232 233 234 234 231 231 234 238 238 237 236 235 235 234 234 233 233 234 236 236 235 236 236 233 232 233 232 228 226 227 230 229 226 223 218 213
248 255 249 237 253 267 255 246 248 248 239 229 219 207 204 209 214 219 221 220 222 230 236 237 236 236 237 240 242 243 243 244 244 244 245 245 243 243 244 245 243 239 238 241 241 234 230 231 232 233 234 235 235 235 234 234 236 238 238 235 234 235 236 235 234 233 233 235 236 236 236 236 234 231 230 229 227 224 224 227 229 230 228 220 213
256 272 251 231 278 278 252 237 228 220 215 216 213 206 203 206 214 218 219 217 217 225 234 238 239 238 238 239 242 244 244 244 244 245 245 245 245 244 244 244 242 239 238 241 241 235 232 233 233 234 236 237 237 237 235 235 237 239 240 239 236 235 236 236 236 235 235 235 236 236 236 236 235 232 228 226 224 223 223 225 228 229 226 223 218
307 277 242 206 7 337 296 241 216 206 199 191 194 199 195 195 207 211 208 206 210 220 229 235 238 239 237 237 239 242 244 246 246 246 245 244 246 245 244 244 244 240 234 233 233 233 233 233 231 233 236 237 238 238 237 238 240 241 241 243 242 239 237 236 237 237 237 237 236 235 235 236 235 230 225 223 222 221 221 222 226 225 222 221 217
326 280 242 242 14 14 13 353 195 194 195 187 182 189 193 197 206 211 210 211 215 223 230 233 236 238 236 235 236 240 244 246 246 246 245 244 245 243 242 243 243 237 232 232 231 231 233 234 233 234 236 235 237 239 239 240 243 244 243 244 245 241 237 236 237 236 234 234 234 232 232 234 233 228 222 220 219 219 218 220 223 221 217 216 211
345 315 311 12 21 28 26 29 91 165 185 188 186 191 198 205 210 211 213 214 217 221 224 226 230 232 232 231 232 236 241 245 246 245 245 246 246 244 243 243 239 231 230 232 232 232 234 235 235 235 236 235 235 237 239 241 244 244 243 244 244 240 235 235 237 236 231 228 228 228 228 230 229 224 220 217 215 215 215 217 216 213 210 209 206
9 355 4 27 32 37 42 44 56 95 147 176 188 193 197 203 208 212 213 213 214 217 219 220 220 222 225 227 227 226 229 235 240 239 238 241 243 241 240 240 235 231 230 231 232 233 234 235 237 238 238 237 237 237 238 241 245 245 242 241 242 239 233 230 232 234 231 226 222 221 221 224 224 220 217 215 214 213 213 212 210 206 204 203 202
50 43 47 62 58 52 60 63 58 69 96 135 168 180 190 197 201 205 208 208 208 209 210 214 213 209 212 217 218 218 218 221 227 230 230 234 237 237 238 238 235 233 232 231 235 238 237 238 239 240 241 241 240 238 237 238 244 247 245 241 239 237 233 228 227 229 228 225 222 218 216 218 219 216 212 211 210 210 210 208 206 202 198 196 197
60 60 64 79 81 78 77 76 71 74 86 109 134 144 156 174 182 187 187 185 190 183 179 193 200 198 204 210 210 215 220 219 222 228 230 233 234 234 237 240 240 240 239 237 238 241 242 243 244 243 243 243 243 244 244 242 244 249 250 248 245 242 239 236 233 227 222 220 219 215 212 213 214 211 209 209 208 205 203 202 201 199 195 192 193
71 73 69 69 76 85 88 89 87 85 89 98 107 107 103 99 107 133 144 149 164 165 163 173 175 175 187 196 191 197 214 219 222 227 233 238 239 237 237 239 242 245 247 247 247 248 248 248 248 248 248 248 250 253 254 252 252 255 258 259 258 254 251 248 241 228 219 217 216 213 211 211 210 208 207 207 205 202 199 197 195 194 192 192 193
81 84 80 75 76 80 81 80 79 81 87 90 87 84 85 84 81 89 113 130 139 146 159 176 186 189 196 195 183 186 204 218 222 227 233 239 245 246 245 245 246 247 249 251 254 257 257 256 256 257 256 256 257 259 259 257 258 261 262 264 264 262 258 254 245 230 219 216 215 213 211 210 207 205 205 205 202 200 198 195 192 191 191 193 196